Stations météo

réclame
Mon MeteoGroup
Laupheim, Allemagne (10837): Température de l'air & dewpoint: 15.10.2017 05:00:00 - 21.10.2017 05:00:00 (CEST)Laupheim, Allemagne (10837): Vitesse du vent: 15.10.2017 05:00:00 - 21.10.2017 05:00:00 (CEST)Laupheim, Allemagne (10837): Direction du vent: 15.10.2017 05:00:00 - 21.10.2017 05:00:00 (CEST)Laupheim, Allemagne (10837): reduced air pressure: 15.10.2017 05:00:00 - 21.10.2017 05:00:00 (CEST)Laupheim, Allemagne (10837): visibility: 15.10.2017 05:00:00 - 21.10.2017 05:00:00 (CEST)
Date & Time tt [°C] td [°C] ff [km/h] ff [knt] dd ppp [hPa] vv [km]
21.10.2017 05:00:00 - - - - - - -
21.10.2017 04:00:00 12,6 9,9 7 4 W 1017,6 15
21.10.2017 03:00:00 12,9 10,1 7 4 SW 1017,6 15
21.10.2017 02:00:00 12,8 10,2 7 4 WSW 1017,7 15
21.10.2017 01:00:00 13,0 10,2 4 2 SW 1017,7 18
21.10.2017 00:00:00 13,4 10,2 7 4 SW 1017,8 18
20.10.2017 23:00:00 13,7 10,2 7 4 SW 1017,8 20
20.10.2017 22:00:00 13,7 10,1 11 6 SSW 1017,6 20
20.10.2017 21:00:00 13,8 10,2 7 4 SSW 1017,5 20
20.10.2017 20:00:00 14,6 9,9 14 8 SW 1017,3 20
20.10.2017 19:00:00 15,7 9,2 14 8 SW 1016,6 20
20.10.2017 18:00:00 17,3 8,1 14 8 WSW 1015,8 20
20.10.2017 17:00:00 18,9 7,1 18 10 WSW 1014,9 20
20.10.2017 16:00:00 19,9 7,4 18 10 SW 1014,4 20
20.10.2017 15:00:00 19,8 8,4 14 8 SW 1014,4 20
20.10.2017 14:00:00 19,3 8,8 18 10 SW 1014,7 18
20.10.2017 13:00:00 17,4 9,3 14 8 WSW 1015,5 13
20.10.2017 12:00:00 15,5 9,4 11 6 SW 1016,1 13
20.10.2017 11:00:00 14,4 9,3 14 8 WSW 1016,0 13
20.10.2017 10:00:00 11,5 9,5 7 4 WSW 1016,6 9
20.10.2017 09:00:00 9,8 8,8 11 6 WSW 1016,2 7
20.10.2017 08:00:00 9,0 8,7 11 6 SW 1015,9 5
20.10.2017 07:00:00 7,7 7,5 13 7 WSW 1016,0 3,0
20.10.2017 06:00:00 8,2 8,0 8 4 WSW 1015,8 0,3
20.10.2017 05:00:00 8,1 7,9 7 4 SSW 1015,8 0,1
20.10.2017 04:00:00 7,8 7,6 7 4 SSW 1015,6 0,1
20.10.2017 03:00:00 9,0 8,8 7 4 E 1015,1 -
20.10.2017 02:00:00 9,4 9,2 7 4 NE 1014,6 -
20.10.2017 01:00:00 9,1 8,8 5 3 ENE 1014,8 0,5
20.10.2017 00:00:00 9,8 9,3 11 6 NE 1014,6 3,0
19.10.2017 23:00:00 11,0 10,1 8 4 NNE 1014,7 4,0
19.10.2017 22:00:00 11,3 10,1 8 4 NE 1014,5 7
19.10.2017 21:00:00 11,7 9,8 7 4 NE 1014,4 15
19.10.2017 20:00:00 13,1 10,0 7 4 NE 1014,3 20
19.10.2017 19:00:00 13,9 8,8 7 4 N 1014,0 25
19.10.2017 18:00:00 16,3 10,0 7 4 NE 1013,1 27
19.10.2017 17:00:00 18,4 10,2 7 4 E 1012,8 27
19.10.2017 16:00:00 19,3 9,0 7 4 ENE 1012,6 27
19.10.2017 15:00:00 18,0 9,6 4 2 ENE 1013,4 25
19.10.2017 14:00:00 16,2 9,3 4 2 N 1014,7 23
19.10.2017 13:00:00 14,6 6,8 4 2 N 1015,8 15
19.10.2017 12:00:00 11,8 8,5 4 2 N 1016,5 9
19.10.2017 11:00:00 10,2 8,3 2 1 W 1016,9 5
19.10.2017 10:00:00 8,3 7,5 2 1 W 1017,3 3,0
19.10.2017 09:00:00 6,6 6,3 4 2 WSW 1017,3 0,2
19.10.2017 08:00:00 4,6 4,3 4 2 N 1017,4 0,3
19.10.2017 07:00:00 5,3 5,0 0 0 N 1017,2 0,3
19.10.2017 06:00:00 5,7 5,4 7 4 W 1017,3 1,1
19.10.2017 05:00:00 6,0 5,5 4 2 N 1017,2 0,9
19.10.2017 04:00:00 6,3 5,8 4 2 W 1017,3 3,0
19.10.2017 03:00:00 7,4 7,0 4 2 N 1017,3 3,5
19.10.2017 02:00:00 7,7 7,1 4 2 N 1017,3 4,0
19.10.2017 01:00:00 8,4 7,6 4 2 S 1017,4 5
19.10.2017 00:00:00 9,2 8,3 4 2 N 1017,0 8
18.10.2017 23:00:00 9,3 8,2 2 1 SSE 1017,1 9
18.10.2017 22:00:00 10,4 8,3 4 2 N 1016,6 15
18.10.2017 21:00:00 12,2 8,9 4 2 N 1016,0 20
18.10.2017 20:00:00 14,3 8,7 11 6 E 1015,3 22
18.10.2017 19:00:00 14,3 8,9 11 6 E 1015,0 25
18.10.2017 18:00:00 17,4 8,4 11 6 ENE 1014,1 27
18.10.2017 17:00:00 19,4 8,8 11 6 ENE 1013,5 27
18.10.2017 16:00:00 20,0 8,4 11 6 NE 1013,6 30
18.10.2017 15:00:00 20,4 8,6 7 4 NNE 1013,9 27
18.10.2017 14:00:00 18,9 8,4 4 2 NE 1014,8 25
18.10.2017 13:00:00 17,2 9,4 4 2 WNW 1015,8 20
18.10.2017 12:00:00 15,4 9,7 4 2 N 1016,7 20
18.10.2017 11:00:00 12,7 8,9 7 4 W 1017,6 18
18.10.2017 10:00:00 8,9 7,8 7 4 SW 1018,8 7
18.10.2017 09:00:00 7,9 7,4 7 4 W 1019,0 6
18.10.2017 08:00:00 6,8 6,5 4 2 SSE 1019,0 5
18.10.2017 07:00:00 7,3 7,0 4 2 WSW 1019,1 0,6
18.10.2017 06:00:00 7,7 7,3 4 2 SW 1019,3 6
18.10.2017 05:00:00 7,5 7,0 4 2 SSW 1019,6 12
18.10.2017 04:00:00 8,2 7,4 7 4 SW 1019,8 15
18.10.2017 03:00:00 8,3 7,7 4 2 S 1020,2 15
18.10.2017 02:00:00 9,3 8,4 7 4 SSW 1020,2 15
18.10.2017 01:00:00 9,1 8,1 4 2 W 1020,4 15
18.10.2017 00:00:00 10,5 8,9 4 2 SW 1020,6 15
17.10.2017 23:00:00 11,4 9,7 4 2 SSW 1020,4 10
17.10.2017 22:00:00 11,4 9,9 4 2 W 1020,4 20
17.10.2017 21:00:00 12,0 9,6 4 2 NW 1020,4 20
17.10.2017 20:00:00 13,1 9,5 4 2 SE 1020,3 20
17.10.2017 19:00:00 15,4 10,0 7 4 E 1019,8 25
17.10.2017 18:00:00 19,5 10,4 4 2 NNE 1019,0 25
17.10.2017 17:00:00 21,6 10,6 4 2 N 1019,0 25
17.10.2017 16:00:00 21,4 9,7 4 2 N 1019,5 25
17.10.2017 15:00:00 21,0 10,1 4 2 ENE 1020,4 25
17.10.2017 14:00:00 20,6 11,3 4 2 WNW 1021,3 20
17.10.2017 13:00:00 18,6 11,6 7 4 N 1023,0 20
17.10.2017 12:00:00 16,4 11,0 7 4 W 1024,1 18
17.10.2017 11:00:00 14,0 10,7 7 4 WSW 1025,0 15
17.10.2017 10:00:00 10,4 8,7 7 4 WSW 1026,3 10
17.10.2017 09:00:00 7,6 6,7 5 3 WSW 1026,8 8
17.10.2017 08:00:00 6,5 5,9 7 4 W 1026,9 4,8
17.10.2017 07:00:00 6,9 6,4 7 4 SW 1026,9 4,5
17.10.2017 06:00:00 6,9 6,6 4 2 SSW 1026,8 4,2
17.10.2017 05:00:00 7,2 6,7 4 2 N 1026,9 4,2
17.10.2017 04:00:00 7,4 6,9 4 2 N 1027,1 7
17.10.2017 03:00:00 8,0 7,4 4 2 N 1027,3 11
17.10.2017 02:00:00 8,3 7,6 4 2 SSW 1027,5 13
17.10.2017 01:00:00 8,8 8,1 4 2 N 1027,5 13
17.10.2017 00:00:00 9,9 9,4 4 2 N 1027,3 19
16.10.2017 23:00:00 10,9 9,6 4 2 N 1027,3 19
16.10.2017 22:00:00 12,0 10,6 4 2 SSW 1026,9 19
16.10.2017 21:00:00 12,7 11,1 4 2 W 1026,6 19
16.10.2017 20:00:00 14,1 11,2 4 2 E 1026,2 25
16.10.2017 19:00:00 17,0 10,5 4 2 ESE 1025,3 25
16.10.2017 18:00:00 21,0 10,8 4 2 E 1024,1 25
16.10.2017 17:00:00 22,4 9,7 4 2 ENE 1024,0 25
16.10.2017 16:00:00 23,2 10,3 4 2 N 1024,0 25
16.10.2017 15:00:00 22,6 9,3 4 2 WNW 1024,4 25
16.10.2017 14:00:00 21,4 10,0 7 4 WSW 1025,1 25
16.10.2017 13:00:00 19,4 8,9 7 4 SW 1026,1 25
16.10.2017 12:00:00 16,9 10,1 7 4 SW 1026,9 20
16.10.2017 11:00:00 13,8 9,1 7 4 N 1027,9 19
16.10.2017 10:00:00 10,8 8,3 7 4 W 1028,5 16
16.10.2017 09:00:00 9,1 7,9 7 4 SSW 1028,7 12
16.10.2017 08:00:00 6,9 6,0 4 2 SW 1029,0 10
16.10.2017 07:00:00 8,5 7,6 4 2 N 1028,6 10
16.10.2017 06:00:00 8,9 8,2 7 4 SW 1028,5 8
16.10.2017 05:00:00 8,9 8,3 7 4 SW 1028,5 8
16.10.2017 04:00:00 9,9 8,9 11 6 SW 1028,3 10
16.10.2017 03:00:00 10,9 9,7 11 6 SW 1028,2 10
16.10.2017 02:00:00 9,8 9,0 7 4 SW 1028,5 10
16.10.2017 01:00:00 9,6 8,5 7 4 SSW 1028,5 15
16.10.2017 00:00:00 10,5 9,4 7 4 SSW 1028,1 15
15.10.2017 23:00:00 10,9 10,0 4 2 S 1027,9 15
15.10.2017 22:00:00 11,8 10,8 4 2 SSW 1027,5 15
15.10.2017 21:00:00 11,8 10,6 4 2 N 1027,3 18
15.10.2017 20:00:00 13,8 11,8 4 2 N 1026,8 18
15.10.2017 19:00:00 15,9 12,1 4 2 SSW 1025,9 19
15.10.2017 18:00:00 20,4 11,6 4 2 S 1024,6 22
15.10.2017 17:00:00 21,3 11,2 7 4 SSW 1024,5 22
15.10.2017 16:00:00 21,0 11,8 4 2 N 1024,9 18
15.10.2017 15:00:00 20,3 12,4 4 2 W 1025,3 18
15.10.2017 14:00:00 18,5 12,9 4 2 W 1026,3 12
15.10.2017 13:00:00 15,6 12,3 7 4 N 1027,6 12
15.10.2017 12:00:00 12,4 12,0 5 3 W 1028,7 2,9
15.10.2017 11:00:00 9,5 9,2 7 4 WSW 1029,6 0,4
15.10.2017 10:00:00 8,0 7,8 7 4 SW 1029,9 0,2
15.10.2017 09:00:00 7,6 7,4 7 4 W 1029,7 0,1
15.10.2017 08:00:00 7,2 7,0 7 4 W 1029,7 0,1
15.10.2017 07:00:00 7,2 7,0 4 2 SW 1029,7 0,2
15.10.2017 06:00:00 7,3 7,1 4 2 ESE 1029,8 0,3
15.10.2017 05:00:00 7,9 7,7 4 2 W 1029,5 0,1

tt = Température de l'air
td = dewpoint
ff = Vitesse du vent
dd = Direction du vent
ppp = reduced air pressure
vv = visibility

stations d'obs. à proximité